TimeEST,TemperatureF,Dew PointF,Humidity,Sea Level PressureIn,VisibilityMPH,Wind Direction,Wind SpeedMPH,Gust SpeedMPH,PrecipitationIn,Events,Conditions,WindDirDegrees,DateUTC
12:55 AM,38.8,16.3,40,29.91,10.0,NW,8.1,17.3,N/A,,Overcast,310,2012-11-08 05:55:00
1:55 AM,38.8,16.9,41,29.89,10.0,NNW,16.1,25.3,N/A,,Overcast,330,2012-11-08 06:55:00
2:55 AM,39.4,15.8,38,29.88,10.0,NW,13.8,25.3,N/A,,Overcast,320,2012-11-08 07:55:00
3:55 AM,38.8,17.2,42,29.89,10.0,Variable,5.8,-,N/A,,Overcast,0,2012-11-08 08:55:00
4:55 AM,38.8,18.3,44,29.90,10.0,NNW,8.1,-,N/A,,Clear,330,2012-11-08 09:55:00
5:55 AM,39.0,17.8,42,29.90,10.0,North,9.2,-,N/A,,Overcast,350,2012-11-08 10:55:00
6:55 AM,38.8,16.9,41,29.91,10.0,North,8.1,20.7,N/A,,Scattered Clouds,350,2012-11-08 11:55:00
7:55 AM,38.5,17.6,43,29.92,10.0,Variable,4.6,-,N/A,,Mostly Cloudy,0,2012-11-08 12:55:00
8:55 AM,39.0,18.5,44,29.92,10.0,ENE,12.7,-,N/A,,Mostly Cloudy,60,2012-11-08 13:55:00
9:55 AM,41.5,19.0,41,29.93,10.0,ENE,8.1,-,N/A,,Partly Cloudy,60,2012-11-08 14:55:00
10:55 AM,44.1,19.0,37,29.95,10.0,NNW,13.8,26.5,N/A,,Clear,340,2012-11-08 15:55:00
11:55 AM,45.7,18.3,34,29.94,10.0,NNW,10.4,23.0,N/A,,Clear,340,2012-11-08 16:55:00
12:55 PM,47.5,16.9,30,29.92,10.0,NW,12.7,29.9,N/A,,Clear,320,2012-11-08 17:55:00
1:55 PM,49.1,16.2,27,29.92,10.0,NNW,8.1,20.7,N/A,,Clear,330,2012-11-08 18:55:00
2:55 PM,48.6,12.7,24,29.92,10.0,NW,12.7,25.3,N/A,,Clear,320,2012-11-08 19:55:00
3:55 PM,49.6,11.5,22,29.93,10.0,NW,10.4,23.0,N/A,,Clear,310,2012-11-08 20:55:00
4:55 PM,47.7,9.1,21,29.95,10.0,West,4.6,17.3,N/A,,Clear,280,2012-11-08 21:55:00
5:55 PM,46.4,9.7,23,29.97,10.0,North,11.5,21.9,N/A,,Clear,350,2012-11-08 22:55:00
6:55 PM,45.9,9.9,23,30.00,10.0,Variable,5.8,-,N/A,,Clear,0,2012-11-08 23:55:00
7:55 PM,45.1,10.4,24,30.01,10.0,NW,9.2,17.3,N/A,,Clear,310,2012-11-09 00:55:00
8:55 PM,44.2,11.3,26,30.02,10.0,NW,8.1,20.7,N/A,,Clear,320,2012-11-09 01:55:00
9:55 PM,43.0,14.5,32,30.03,10.0,NW,13.8,18.4,N/A,,Clear,320,2012-11-09 02:55:00
10:55 PM,41.4,14.4,33,30.04,10.0,NW,9.2,-,N/A,,Clear,310,2012-11-09 03:55:00
11:55 PM,40.6,13.1,33,30.05,10.0,NW,10.4,20.7,N/A,,Clear,320,2012-11-09 04:55:00